www.pogodaiklimat.ru

Погода и климат >> Архив погоды >> Россия >> Красноярский край >> Караул


ПОГОДА в Карауле

  • Прогноз погоды в Карауле
  • Монитор погоды в Карауле

АРХИВ ПОГОДЫ в Карауле

Время (UTC), дата Ветер
(напр.,м/с)
 
Видим.   Явления Облачность Т
(С)
Тd
(С)
f
(%)
Тe
(С)
Тes
(С)
Комфортность P
(гПа)
Po
(гПа)
Тmin
(С)
Tmax
(С)
R
(мм)
R24
(мм)
S
(см)
03 13.06 В 6-10
{10}
50 км 9/5 300 м
[Sc Ac trans]
+5.4 +1.4 75 +1 +1 995.2 991.7
06 13.06 В 7-10
{11}
10 км слаб. ливневой дождь 10/8 300 м
[Cb cap Ac und]
+4.4 +2.7 89 -1 -1 993.2 989.7
09 13.06 В 8-11
{12}
50 км в посл. час ливневой дождь 10/8 300 м
[Cb cap Ac und]
+6.4 +2.5 76 +1 +1 991.3 987.8
12 13.06 В 7
{10}
20 км {ливн. осадки} 10/0 2000 м
[Ac As]
+8.6 +1.5 61 +5 +5 989.1 985.7 +9.0 2
15 13.06 В 6
{10}
20 км 10/0 2000 м
[Ac As]
+5.7 +2.0 77 +1 +1 988.0 984.5
18 13.06 СВ 3 20 км 9/0 2000 м
[Ac As]
+5.0 +2.5 84 +2 +2 986.8 983.3
21 13.06 В 2 20 км 10/0 2000 м
[Ac As]
+4.3 +2.6 89 +1 +2 985.6 982.1
00 14.06 СВ 4
{10}
4000 м дымка 10/10 200 м
[St]
+3.5 +3.0 97 -1 -1 984.0 980.5 +3.3
03 14.06 СВ 4 10 км слаб. ливневой дождь 10/10 300 м
[Cb cap]
+5.0 +4.1 94 +1 +1 981.7 978.2
06 14.06 СВ 6
{12}
10 км слаб. ливневой дождь 10/10 300 м
[Cb cap]
+4.7 +4.0 95 -1 -1 980.2 976.7
09 14.06 Ю 11-15
{17}
50 км {ливн. осадки} 10/10 300 м
[Sc]
+3.0 +0.9 86 -4 -4 983.2 979.7
12 14.06 Ю 12-15
{18}
20 км в посл. час ливневой дождь 10/10 300 м
[Cb cap]
+2.2 +0.3 87 -6 -6 985.5 982.0 +5.1 7
15 14.06 Ю 11-16
{19}
20 км 9/9 300 м
[Sc]
+2.8 -0.8 77 -5 -5 986.0 982.5
18 14.06 Ю 12-16
{18}
20 км 9/8 300 м
[Sc Ac trans]
+1.8 -1.6 78 -6 -6 986.1 982.6
21 14.06 ЮВ 12-15
{17}
20 км 6/6 300 м
[Sc]
+1.7 -1.1 82 -6 -6 984.5 981.0
00 15.06 ЮВ 10-14
{17}
20 км в посл. час ливневой снег 9/9 600 м
[Cb cap]
+2.2 0.0 85 -5 -5 983.1 979.6 +1.4 0.0
03 15.06 ЮВ 6
{14}
20 км в посл. час ливневой снег 10/8 300 м
[Cb cap Ac und]
+1.2 +0.4 94 -5 -5 983.2 979.7
06 15.06 З 6 50 км {ливн. осадки} 9/8 300 м
[Cb cap Ac trans]
+3.0 +0.1 81 -3 -2 986.1 982.6
09 15.06 З 10-13
{14}
20 км осадки на расстоянии 9/9 300 м
[Cb cap]
+2.8 +0.4 84 -4 -4 992.1 988.6
12 15.06 З 10-13
{14}
20 км слаб. ливневой дождь 9/9 300 м
[Cb cap]
+2.0 -0.8 82 -5 -5 997.1 993.6 +3.0 0.0
15 15.06 ЮЗ 7-11
{13}
50 км {ливн. осадки} 9/9 300 м
[Sc]
+2.2 -1.2 78 -4 -4 1000.6 997.1
18 15.06
{11}
50 км {ливн. осадки} н/о +2.2 0.0 85 -3 -3 1002.6 999.1
21 15.06 Ю 5 50 км 10/10 300 м
[Sc]
+2.6 +0.8 88 -3 -3 1003.5 1000.0
00 16.06 Ю 7 50 км 9/0 2000 м
[Ac As]
+3.7 +0.8 81 -2 -2 1004.1 1000.6 +2.0 0.0
03 16.06 Ю 9-11
{12}
50 км 3/0 2000 м
[Ac trans]
+6.8 +1.9 71 +2 +2 1004.4 1000.9
06 16.06 Ю 11-15
{16}
50 км 8/3 300 м
[Cu hum Ac trans]
+9.0 +1.5 59 +4 +4 1004.5 1001.0
09 16.06 ЮВ 9-13
{15}
50 км {ливн. осадки} 8/8 300 м
[Cu Sc]
+8.6 +4.0 73 +4 +4 1004.7 1001.2
12 16.06 Ю 9-12
{14}
50 км {ливн. осадки} 9/9 300 м
[Sc]
+8.4 +3.2 70 +4 +4 1005.2 1001.7 +9.4 0.0
15 16.06 ЮВ 7-12
{12}
50 км 9/3 300 м
[Sc Ac trans]
+7.8 +2.5 69 +4 +4 1004.7 1001.2
18 16.06 ЮВ 6
{12}
50 км 9/3 300 м
[Sc Ac trans Ci fib]
+6.2 +2.6 78 +2 +2 1004.4 1000.9
21 16.06 В 5 50 км 3/0 2000 м
[Ac trans]
+5.0 +0.9 75 +1 +1 1003.9 1000.4
00 17.06 В 3 50 км 4/0 2000 м
[Ac trans]
+7.2 +1.3 66 +5 +6 1003.2 999.7 +4.8
03 17.06 В 4 50 км 9/0
[Ac trans]
+6.5 +2.4 75 +3 +5 1002.6 999.1
06 17.06 ЮВ 6 50 км 4/1 600 м
[Cu hum Ac trans Ci fib]
+10.2 +2.5 59 +7 +10 1001.7 998.2
09 17.06 В 6-10
{12}
50 км 5/3 600 м
[Cu hum Ci fib]
+12.5 +2.7 51 +10 +12 1000.6 997.2
12 17.06 ЮВ 6
{12}
50 км 5/1 600 м
[Cu hum Ac trans Ci fib]
+12.1 +2.7 53 +10 +11 1000.5 997.1 +12.8
15 17.06 ЮВ 6 50 км 8/0
[Ac trans Ci fib]
+10.2 +2.7 60 +7 +7 1000.1 996.6
18 17.06 В 5 50 км 8/0
[Ac trans Ci fib]
+8.4 +1.9 64 +5 +5 999.4 995.9
21 17.06 В 5 50 км 8/0
[Ac trans Ci fib]
+7.9 +2.7 70 +4 +4 998.9 995.4
00 18.06 В 3 50 км 6/0
[Ac trans Ci fib]
+8.0 +2.3 67 +6 +7 998.7 995.2 +7.2
03 18.06 В 3 50 км 4/0
[Ac trans Ci fib]
+10.0 +2.9 61 +8 +13 998.1 994.6
06 18.06 В 2 50 км 8/3 600 м
[Cu hum Ac trans]
+12.0 +3.4 56 +11 +15 997.4 994.0
09 18.06 В 6 50 км 8/1 600 м
[Cu hum Ac trans]
+15.6 +3.4 44 +14 +16 997.1 993.7
12 18.06 В 7 50 км 9/1 600 м
[Sc Ac trans]
+14.4 +5.0 53 +12 +13 996.6 993.2 +16.0
15 18.06 ЮВ 7-12
{12}
50 км 10/0 2000 м
[Ac As]
+10.2 +3.6 64 +7 +7 996.7 993.3
18 18.06 ЮВ 7-12
{12}
50 км в посл. час ливневой дождь 10/9 300 м
[Cb cap]
+8.0 +6.1 88 +3 +3 996.4 993.0
21 18.06 ЮЗ 7-11
{12}
50 км {ливн. осадки} 9/9 300 м
[Sc]
+5.8 +4.4 91 0 0 998.5 995.0
00 19.06 Ю 4
{11}
50 км {ливн. осадки} 8/0 2000 м
[Ac trans Ci fib]
+5.4 +3.0 85 +1 +3 1000.5 997.0 +4.8 0.0
03 19.06 В 5 50 км в посл. час ливневой дождь 9/5 600 м
[Cb cap Ac trans]
+7.6 +4.8 82 +4 +5 1000.8 997.3
06 19.06 В 7
{10}
50 км {ливн. осадки} 9/3 600 м
[Cu Sc Ac trans Ci fib]
+11.6 +6.2 69 +9 +10 999.1 995.7
09 19.06 ЮВ 2 20 км слаб. ливневой дождь 10/8 300 м
[Cb cap Ac und]
+11.5 +6.2 70 +11 +11 998.4 995.0
12 19.06 В 1 4000 м ливневой дождь 10/10 300 м
[Cb cap]
+9.2 +8.4 95 +8 +8 996.5 993.1 +12.0 0.3
15 19.06 СЗ 9-14
{14}
2000 м ливневой дождь 10/10 300 м
[Cb cap]
+5.4 +4.9 97 -1 -1 995.0 991.6
18 19.06 З 7-12
{14}
10 км слаб. ливневой дождь 10/10 300 м
[Cb cap]
+4.4 +2.9 90 -1 -1 995.8 992.3
21 19.06 З 4
{12}
20 км слаб. ливневой дождь 10/6 300 м
[Cb cap Ac As]
+4.0 +2.5 90 -1 -1 996.3 992.8
00 20.06 З 7-11
{12}
50 км {ливн. осадки} 9/3 300 м
[Sc Ac trans]
+3.6 +1.5 86 -2 -2 997.8 994.3 +3.4 7

 

Местоположение метеостанции Караул (Красноярский край, Россия): широта 70.08 долгота 83.17 высота над уровнем моря 29 м.

В архиве по умолчанию представлена погода в Карауле за последнюю неделю. Архивные данные за месяц целиком и за предыдущие месяцы, начиная с января 2011 года, Вы можете получить, выбрав интересующий диапазон дат из раскрывающегося списка и нажав кнопку "Ввод!".


*Определитесь, кто Вы:
робот инопланетянин человек

Внимание! Время в таблицах - всемирное. Для получения местного времени необходимо прибавить поправку, которая равна 7 ч.

Смотрите также архив погоды в соседних городах и на ближайших метеорологических станциях:

Погода в Гыде (Ямало-Ненецкий АО, Россия) (196 км)
Погода в Потапово (Красноярский край, Россия) (198 км)
Погода в Сопочной Карге (Красноярский край, Россия) (200 км)
Погода в Норильске (Красноярский край, Россия) (215 км)
Погода в Крестах Таймырских (Красноярский край, Россия) (265 км)
Погода в Антипаюте (Ямало-Ненецкий АО, Россия) (269 км)
Погода в Снежногорске (Красноярский край, Россия) (286 км)
Погода в Игарке (Красноярский край, Россия) (321 км)
Погода в Тазовском (Ямало-Ненецкий АО, Россия) (341 км)
Погода в Горбиачине (Красноярский край, Россия) (345 км)

Пояснения к столбцам:

Ветер - указаны скорость ветра в м/с - средняя за 10 мин, порывы в срок и между сроками (в фигурных скобках) и направление, откуда дует ветер: С - северный, СВ - северо-восточный, В - восточный, ЮВ - юго-восточный, Ю - южный, ЮЗ - юго-западный, З - западный, СЗ - северо-западный.
Видимость - горизонтальная дальность видимости в метрах или километрах. При видимости от 1 до 10 км при отсутствии осадков обычно наблюдается дымка, при ухудшении видимости до 1 км и менее - туман. В сухую погоду видимость может ухудшаться дымом, пылью или мглою.
Явления - указаны атмосферные явления, наблюдавшиеся в срок или в последний час перед сроком; фигурными скобками обозначены явления, наблюдавшиеся между сроками (за 1-3 часа до срока); квадратными скобками обозначены град или гололедные отложения с указанием их диаметра в мм.
Облачность - указаны через наклонную черту общая и нижняя облачность в баллах и высота нижней границы облаков в метрах; квадратными скобками обозначены формы облаков: Ci - перистые, Cs - перисто-слоистые, Cc - перисто-кучевые, Ac - высококучевые, As - высокослоистые, Sc - слоисто-кучевые, Ns - слоисто-дождевые, Cu - кучевые, Cb - кучево-дождевые. Подробнее классификацию облаков см. в Атласе облаков (PDF).
T - Температура воздуха - температура, измеренная на высоте 2 м над землей.
Td - Температура точки росы - температура, при понижении до которой содержащийся в воздухе водяной пар достигнет насыщения.
f - Относительная влажность воздуха - влажноcть воздуха, измеренная на высоте 2 м над землей.
Te - Эффективная температура - температура, которую ощущает одетый по сезону человек в тени. Характеристика душности погоды. При расчете учитывается влияние влажности воздуха и скорости ветра на теплоощущения человека.
Tes - Эффективная температура на солнце - температура, которую ощущает человек, с поправкой на солнечный нагрев. Характеристика знойности погоды. Зависит от высоты солнца над горизонтом, облачности и скорости ветра. Ночью, в пасмурную погоду, а также при ветре 12 м/с и более поправка равна нулю.
P - Атмосферное давление - приведенное к уровню моря атмосферное давление.
Po - Атмосферное давление - измеренное на уровне метеостанции атмосферное давление.
Tmin - Минимальная температура - минимум температуры воздуха на высоте 2 м над землей.
Tmax - Максимальная температура - максимум температуры воздуха на высоте 2 м над землей.
R - Количество осадков - Количество выпавших осадков за период времени, мм. При наведении курсора мыши на число - период времени, за который выпало указанное количество осадков.
R24 - Количество осадков - Количество выпавших осадков за 24 часа, мм.
S - Снежный покров - Высота снежного покрова, см. При наведении курсора мыши на число - состояние снежного покрова и степень покрытия местности в баллах.